Weather History for HEAR - April, 2013

Change the Weather History Date:

Tuesday, April 23, 2013

  Actual Average Record
Temperature  
Mean Temperature 61 °F -  
Max Temperature 72 °F 81 °F - ()
Min Temperature 50 °F 57 °F - ()
Degree Days  
Heating Degree Days 4    
Growing Degree Days 11 (Base 50)    
Moisture  
Dew Point 53 °F    
Average Humidity 70    
Maximum Humidity 94    
Minimum Humidity 38    
Precipitation  
Precipitation 0.00 in 0.00 in - ()
Sea Level Pressure  
Sea Level Pressure 30.05 in    
Wind  
Wind Speed 4 mph ()    
Max Wind Speed 13 mph    
Max Gust Speed -    
Visibility 6.1 miles    
Events      
T = Trace of Precipitation, MM = Missing Value Source: Averaged Metar Reports

Daily Weather History Graph

Daily Weather History Graph

Search for Another Location

Airport or City:

Trip Planner

Search our weather history database for the weather conditions in past years. The results will help you decide how hot, cold, wet, or windy it might be!

Date:

Astronomy

Apr. 23, 2013 Rise Set
Actual Time 5:08 AM EET 6:18 PM EET
Civil Twilight 4:42 AM EET 6:43 PM EET
Nautical Twilight 4:12 AM EET 7:13 PM EET
Astronomical Twilight 3:42 AM EET 7:44 PM EET
Moon 3:58 PM EET (4/23) 3:14 AM EET (4/23)
Length of Visible Light 14h 00m
Length of Day
13h 10m
Waxing Gibbous, 92% of the Moon is Illuminated
Apr 23
Waxing Gibbous
Apr 25
Full
May 2
Last Quarter
May 10
New
May 18
First Quarter

Hourly Weather History & Observations

Time (EET) Temp. Dew Point Humidity Pressure Visibility Wind Dir Wind Speed Gust Speed Precip Events Conditions
12:00 AM 55.4 °F 51.8 °F 88% 30.01 in - SSW 2.3 mph - N/A   Clear
1:00 AM 55.4 °F 51.8 °F 88% 30.01 in - South 4.6 mph - N/A   Clear
2:00 AM 54 °F 50 °F 83% 30.00 in 6 mi South 1.2 mph - -  
2:00 AM 53.6 °F 50.0 °F 88% 29.98 in - South 4.6 mph - N/A   Clear
3:00 AM 51.8 °F 50.0 °F 94% 30.01 in - South 4.6 mph - N/A   Clear
4:00 AM 51.8 °F 50.0 °F 94% 30.01 in - South 4.6 mph - N/A   Clear
5:00 AM 50.0 °F 48.2 °F 94% 30.01 in - South 3.5 mph - N/A   Clear
6:00 AM 53.6 °F 51.8 °F 94% 30.04 in 6.2 mi SSE 6.9 mph - N/A   Scattered Clouds
7:00 AM 60.8 °F 51.8 °F 72% 30.06 in 6.2 mi SSE 6.9 mph - N/A   Scattered Clouds
8:00 AM 67 °F 53 °F 50% 30.09 in 6 mi SE 1.2 mph - -  
8:00 AM 66.2 °F 53.6 °F 64% 30.06 in - SE 1.2 mph - N/A   Clear
9:00 AM 69.8 °F 51.8 °F 53% 30.09 in 6.2 mi NW 1.2 mph - N/A   Scattered Clouds
10:00 AM 71.6 °F 51.8 °F 50% 30.09 in 6.2 mi NNE 2.3 mph - N/A   Scattered Clouds
11:00 AM 71.6 °F 53.6 °F 53% 30.09 in 6.2 mi North 5.8 mph - N/A   Partly Cloudy
12:00 PM 69.8 °F 53.6 °F 56% 30.06 in - NE 6.9 mph - N/A   Clear
1:00 PM 71.6 °F 53.6 °F 53% 30.06 in - North 8.1 mph - N/A   Clear
2:00 PM 72 °F 52 °F 38% 30.07 in 6 mi North 8.1 mph - -   Partly Cloudy
2:00 PM 71.6 °F 51.8 °F 50% 30.06 in 6.2 mi North 8.1 mph - N/A   Scattered Clouds
3:00 PM 71.6 °F 51.8 °F 50% 30.06 in - North 10.4 mph - N/A   Clear
4:00 PM 69.8 °F 50.0 °F 49% 30.04 in - North 12.7 mph - N/A   Clear
5:00 PM 68.0 °F 53.6 °F 60% 30.04 in - North 12.7 mph - N/A   Clear
6:00 PM 66.2 °F 55.4 °F 68% 30.06 in - North 10.4 mph - N/A   Clear
7:00 PM 64.4 °F 55.4 °F 73% 30.06 in - North 5.8 mph - N/A   Clear
8:00 PM 63 °F 55 °F 67% 30.11 in 6 mi NNE 4.6 mph - -  
8:00 PM 62.6 °F 55.4 °F 77% 30.09 in - NNE 4.6 mph - N/A   Clear
9:00 PM 62.6 °F 55.4 °F 77% 30.09 in - NNE 3.5 mph - N/A   Clear
10:00 PM 60.8 °F 57.2 °F 88% 30.09 in - NNE 2.3 mph - N/A   Clear
11:00 PM 57.2 °F 53.6 °F 88% 30.09 in - Calm Calm - N/A   Clear